Location: Windsor
(43.2292°N, 89.3015°W)
Time: 07:00:57
(UTC+00:00)

RS-44 - Pass Details

Date: 02 July 2022
Orbit: 1175 x 1510 km, 82.5° (Epoch: 14 August)

Event Time Altitude Azimuth Distance (km) Brightness Sun altitude
Rises 03:01:11 0° 205° (SSW) 4,323 ? -11.9°
Reaches altitude 10° 03:03:58 10° 211° (SSW) 3,399 ? -12.2°
Maximum altitude 03:11:52 51° 286° (WNW) 1,734 ? -13.1°
Drops below altitude 10° 03:20:20 10° 1° (N) 3,632 ? -14.1°
Sets 03:23:27 0° 6° (N) 4,639 ? -14.5°
